Location: Bailleul
(50.3375°N, 2.8513°E)
Time: 09:33:02
(UTC+00:00)

Cosmos 2333 Rocket - Pass Details

Date: 16 June 2021
Orbit: 841 x 861 km, 70.8° (Epoch: 03 August)

Event Time Altitude Azimuth Distance (km) Brightness Sun altitude
Exits shadow 22:50:58 - 220° (SW) 2,919 4.7 -15.2°
Reaches altitude 10° 22:52:07 10° 222° (SW) 2,490 4.3 -15.2°
Maximum altitude 22:57:48 64° 303° (WNW) 947 2.6 -15.4°
Drops below altitude 10° 23:03:30 10° 26° (NNE) 2,493 5.5 -15.6°
Sets 23:05:59 0° 29° (NNE) 3,429 6.2 -15.7°
